{"data":{"norad_id":61512,"epoch":"2026-09-21T19:01:27.526080Z","epoch_age_seconds":80422,"freshness":"FRESH","line1":"1 61512U 24183D   26264.79267970 -.00000736  00000+0 -10659-4 0  9992","line2":"2 61512  53.1614 295.4580 0001343  88.8919 271.2238 15.34382520109899","mean_motion":15.3438252,"eccentricity":0.0001343,"inclination_deg":53.1614,"raan_deg":295.458,"arg_perigee_deg":88.8919,"mean_anomaly_deg":271.2238,"bstar":-1.0659e-5,"rev_number":10989,"period_min":93.84882721422,"perigee_km":461.83646312229,"apogee_km":463.67392676586,"semimajor_km":6840.8921949441,"source":"CELESTRAK","updated_at":"2026-09-22T09:00:49.354641Z"}}